Retour au catalogue

STARLINK-37643

ActifCommunicationsVLEO
NORAD 69449·PAYLOAD·🇺🇸 United States

Lancé Jun 8, 2026 depuis Cape Canaveral Space Force Station

Loading…

Prochains Passages (prochaines 24 heures)

TLE

FraisSource: CelesTrak SupGP

Époque: Sep 15, 2026, 02:54 UTC

1 69449C 26127G   26258.12131944 -.00080701  00000+0 -23846-2 0  2588
2 69449  53.1568 190.8257 0001335  83.8686  33.9267 15.34427267    17

Suivez STARLINK-37643 en temps réel avec AllMySat

Download on the App Store